Simultaneous Nadir Overpasses (SNOs) Predictions

Prediction of SNOs between GOES-15 and LANDSAT-8 Satellite Orbit:

Table of predicted SNOs for the next 14.0 days since TLE Epoch: 2/1/2025
Index Date Time (GOES-15) GOES-15 Lat,Lon LANDSAT-8 Lat,Lon Distance(km) Time Diff (sec)
1 02/01/2025 06:05:19 0.00, 61.74 -0.05, 62.07 37.72 80
2 02/03/2025 05:53:08 0.00, 61.77 -0.68, 65.03 369.86 80
3 02/03/2025 18:14:32 -0.00, 61.75 -0.38, 59.82 218.08 80
4 02/05/2025 17:59:41 -0.00, 61.79 0.22, 62.79 113.23 80
5 02/06/2025 06:20:55 -0.00, 61.85 0.89, 57.63 479.18 80
6 02/07/2025 17:47:29 -0.00, 61.84 0.86, 65.74 444.08 80
7 02/08/2025 06:08:43 -0.00, 61.90 0.26, 60.59 148.17 80
8 02/10/2025 05:59:10 -0.00, 61.95 -0.35, 63.56 182.84 80
9 02/10/2025 18:20:34 0.01, 61.91 -0.74, 58.36 403.33 80
10 02/12/2025 18:08:20 0.00, 61.96 -0.16, 61.33 72.10 80
11 02/14/2025 17:53:26 -0.00, 62.02 0.45, 64.30 259.51 80
